| time (UTC) | temp F | wind direction | speed MPH | gust MPH | rain 1hr in | rain 24hr in | rain mn in | humidity % | barometer mb |
| 20260504060217 | 56 | 260 | 0.0 | 0.0 | 0.00 | 0.00 | 0.00 | 84 | |
| 20260504050725 | 57 | 240 | 0.0 | 4.0 | 0.00 | 0.00 | 0.00 | 83 | |
| 20260504050322 | 57 | 272 | 1.0 | 5.0 | 0.00 | 0.00 | 0.00 | 83 | |
| 20260504050121 | 57 | 274 | 1.0 | 5.0 | 0.00 | 0.00 | 0.00 | 83 | |
| 20260504045918 | 57 | 272 | 3.0 | 5.0 | 0.00 | 0.00 | 0.00 | 83 | |
| 20260504045716 | 57 | 275 | 4.0 | 5.0 | 0.00 | 0.00 | 0.00 | 83 | |
| 20260504045514 | 57 | 278 | 3.0 | 5.0 | 0.00 | 0.00 | 0.00 | 83 | |
| 20260504045312 | 57 | 279 | 3.0 | 2.0 | 0.00 | 0.00 | 0.00 | 82 | |
| 20260504045110 | 57 | 240 | 0.0 | 2.0 | 0.00 | 0.00 | 0.00 | 82 | |
| 20260504044909 | 57 | 260 | 0.0 | 2.0 | 0.00 | 0.00 | 0.00 | 82 | |
| 20260504044707 | 57 | 247 | 0.0 | 2.0 | 0.00 | 0.00 | 0.00 | 82 | |
| 20260504044505 | 57 | 244 | 0.0 | 2.0 | 0.00 | 0.00 | 0.00 | 82 | |
| 20260504044304 | 57 | 260 | 1.0 | 0.0 | 0.00 | 0.00 | 0.00 | 82 | |
| 20260504044102 | 57 | 254 | 0.0 | 0.0 | 0.00 | 0.00 | 0.00 | 82 | |
| 20260504043859 | 57 | 254 | 0.0 | 0.0 | 0.00 | 0.00 | 0.00 | 82 | |
| 20260504043253 | 57 | 254 | 0.0 | 0.0 | 0.00 | 0.00 | 0.00 | 82 | |
| 20260504043051 | 57 | 254 | 0.0 | 0.0 | 0.00 | 0.00 | 0.00 | 82 | |
| 20260504042850 | 57 | 254 | 0.0 | 0.0 | 0.00 | 0.00 | 0.00 | 82 | |
| 20260504042446 | 57 | 254 | 0.0 | 5.0 | 0.00 | 0.00 | 0.00 | 82 | |
| 20260504042244 | 57 | 254 | 0.0 | 5.0 | 0.00 | 0.00 | 0.00 | 82 | |
| 20260504041840 | 57 | 293 | 4.0 | 5.0 | 0.00 | 0.00 | 0.00 | 82 | |
| 20260504041638 | 57 | 275 | 1.0 | 5.0 | 0.00 | 0.00 | 0.00 | 82 | |
| 20260504041436 | 57 | 220 | 0.0 | 5.0 | 0.00 | 0.00 | 0.00 | 82 | |
| 20260504041234 | 57 | 217 | 0.0 | 3.0 | 0.00 | 0.00 | 0.00 | 82 | |
| 20260504041032 | 57 | 257 | 1.0 | 3.0 | 0.00 | 0.00 | 0.00 | 82 | |
| 20260504040830 | 57 | 223 | 0.0 | 3.0 | 0.00 | 0.00 | 0.00 | 82 | |
| 20260504040628 | 57 | 278 | 2.0 | 0.0 | 0.00 | 0.00 | 0.00 | 83 | |
| 20260504040427 | 57 | 267 | 0.0 | 0.0 | 0.00 | 0.00 | 0.00 | 82 | |
| 20260504040023 | 57 | 248 | 0.0 | 0.0 | 0.00 | 0.00 | 0.00 | 82 | |
| 20260504035821 | 58 | 248 | 0.0 | 0.0 | 0.00 | 0.00 | 0.00 | 82 | |
| 20260504035013 | 58 | 248 | 0.0 | 1.0 | 0.00 | 0.00 | 0.00 | 82 | |
| 20260504034812 | 58 | 248 | 0.0 | 2.0 | 0.00 | 0.00 | 0.00 | 82 | |
| 20260504034610 | 58 | 227 | 0.0 | 2.0 | 0.00 | 0.00 | 0.00 | 82 | |
| 20260504034408 | 58 | 227 | 0.0 | 2.0 | 0.00 | 0.00 | 0.00 | 82 | |
| 20260504034004 | 58 | 219 | 1.0 | 0.0 | 0.00 | 0.00 | 0.00 | 82 | |
| 20260504033802 | 58 | 248 | 0.0 | 2.0 | 0.00 | 0.00 | 0.00 | 82 | |
| 20260504033600 | 58 | 248 | 0.0 | 2.0 | 0.00 | 0.00 | 0.00 | 81 | |
| 20260504033358 | 58 | 248 | 0.0 | 2.0 | 0.00 | 0.00 | 0.00 | 82 | |
| 20260504033156 | 58 | 267 | 1.0 | 2.0 | 0.00 | 0.00 | 0.00 | 82 | |
| 20260504032954 | 58 | 260 | 0.0 | 2.0 | 0.00 | 0.00 | 0.00 | 82 | |
| 20260504032752 | 58 | 272 | 1.0 | 3.0 | 0.00 | 0.00 | 0.00 | 82 | |
| 20260504032550 | 58 | 274 | 2.0 | 3.0 | 0.00 | 0.00 | 0.00 | 81 | |
| 20260504032349 | 58 | 225 | 0.0 | 3.0 | 0.00 | 0.00 | 0.00 | 81 | |
| 20260504032147 | 58 | 225 | 0.0 | 0.0 | 0.00 | 0.00 | 0.00 | 81 | |
| 20260504031945 | 58 | 225 | 0.0 | 0.0 | 0.00 | 0.00 | 0.00 | 81 | |
| 20260504031741 | 58 | 227 | 0.0 | 0.0 | 0.00 | 0.00 | 0.00 | 81 | |
| 20260504031541 | 58 | 227 | 0.0 | 0.0 | 0.00 | 0.00 | 0.00 | 81 | |
| 20260504031339 | 58 | 227 | 0.0 | 0.0 | 0.00 | 0.00 | 0.00 | 81 | |
| 20260504031137 | 58 | 227 | 0.0 | 3.0 | 0.00 | 0.00 | 0.00 | 81 | |
| 20260504030935 | 58 | 227 | 0.0 | 3.0 | 0.00 | 0.00 | 0.00 | 81 | |
| 20260504030733 | 58 | 227 | 0.0 | 8.0 | 0.00 | 0.00 | 0.00 | 81 | |
| 20260504030530 | 58 | 274 | 2.0 | 8.0 | 0.00 | 0.00 | 0.00 | 81 | |
| 20260504030329 | 58 | 277 | 1.0 | 8.0 | 0.00 | 0.00 | 0.00 | 81 | |
| 20260504030128 | 58 | 268 | 4.0 | 7.0 | 0.00 | 0.00 | 0.00 | 81 | |
| 20260504025924 | 58 | 279 | 6.0 | 7.0 | 0.00 | 0.00 | 0.00 | 81 | |
| 20260504025723 | 58 | 271 | 4.0 | 4.0 | 0.00 | 0.00 | 0.00 | 81 | |
| 20260504025522 | 58 | 281 | 5.0 | 4.0 | 0.00 | 0.00 | 0.00 | 81 | |
| 20260504025320 | 58 | 291 | 1.0 | 7.0 | 0.00 | 0.00 | 0.00 | 81 | |
| 20260504024916 | 58 | 302 | 1.0 | 7.0 | 0.00 | 0.00 | 0.00 | 81 | |
| 20260504024714 | 58 | 255 | 1.0 | 7.0 | 0.00 | 0.00 | 0.00 | 81 | |
| 20260504024512 | 58 | 260 | 0.0 | 7.0 | 0.00 | 0.00 | 0.00 | 81 | |
| 20260504024310 | 58 | 239 | 0.0 | 7.0 | 0.00 | 0.00 | 0.00 | 80 | |
| 20260504024109 | 58 | 292 | 1.0 | 7.0 | 0.00 | 0.00 | 0.00 | 80 | |
| 20260504023907 | 58 | 271 | 7.0 | 7.0 | 0.00 | 0.00 | 0.00 | 80 | |
| 20260504023705 | 58 | 277 | 2.0 | 10.0 | 0.00 | 0.00 | 0.00 | 80 | |
| 20260504023501 | 58 | 303 | 4.0 | 10.0 | 0.00 | 0.00 | 0.00 | 80 | |
| 20260504023301 | 58 | 277 | 6.0 | 10.0 | 0.00 | 0.00 | 0.00 | 80 | |
| 20260504023059 | 58 | 264 | 5.0 | 10.0 | 0.00 | 0.00 | 0.00 | 80 | |
| 20260504022857 | 58 | 264 | 8.0 | 10.0 | 0.00 | 0.00 | 0.00 | 80 | |
| 20260504022655 | 58 | 247 | 5.0 | 10.0 | 0.00 | 0.00 | 0.00 | 80 | |
| 20260504022453 | 58 | 270 | 6.0 | 10.0 | 0.00 | 0.00 | 0.00 | 80 | |
| 20260504022049 | 58 | 253 | 5.0 | 6.0 | 0.00 | 0.00 | 0.00 | 80 | |
| 20260504021848 | 58 | 285 | 4.0 | 6.0 | 0.00 | 0.00 | 0.00 | 80 | |
| 20260504021646 | 59 | 203 | 0.0 | 9.0 | 0.00 | 0.00 | 0.00 | 80 | |
| 20260504021442 | 59 | 272 | 3.0 | 9.0 | 0.00 | 0.00 | 0.00 | 80 | |
| 20260504020636 | 58 | 234 | 5.0 | 13.0 | 0.00 | 0.00 | 0.00 | 80 | |
| 20260504020232 | 58 | 257 | 7.0 | 9.0 | 0.00 | 0.00 | 0.00 | 80 | |
| 20260504015627 | 59 | 270 | 6.0 | 12.0 | 0.00 | 0.00 | 0.00 | 78 | |
| 20260504015423 | 59 | 274 | 6.0 | 12.0 | 0.00 | 0.00 | 0.00 | 78 | |
| 20260504015223 | 59 | 255 | 7.0 | 5.0 | 0.00 | 0.00 | 0.00 | 78 | |
| 20260504015021 | 59 | 264 | 1.0 | 5.0 | 0.00 | 0.00 | 0.00 | 78 | |
| 20260504014819 | 59 | 202 | 0.0 | 7.0 | 0.00 | 0.00 | 0.00 | 77 | |
| 20260504014617 | 59 | 271 | 2.0 | 7.0 | 0.00 | 0.00 | 0.00 | 77 | |
| 20260504014415 | 59 | 278 | 3.0 | 7.0 | 0.00 | 0.00 | 0.00 | 77 | |
| 20260504014213 | 59 | 268 | 4.0 | 12.0 | 0.00 | 0.00 | 0.00 | 77 | |
| 20260504014011 | 59 | 209 | 2.0 | 12.0 | 0.00 | 0.00 | 0.00 | 76 | |
| 20260504013810 | 59 | 264 | 8.0 | 13.0 | 0.00 | 0.00 | 0.00 | 76 | |
| 20260504013607 | 59 | 257 | 4.0 | 13.0 | 0.00 | 0.00 | 0.00 | 76 | |
| 20260504013406 | 59 | 255 | 9.0 | 13.0 | 0.00 | 0.00 | 0.00 | 75 | |
| 20260504013000 | 59 | 267 | 9.0 | 10.0 | 0.00 | 0.00 | 0.00 | 73 | |
| 20260504012558 | 60 | 225 | 1.0 | 10.0 | 0.00 | 0.00 | 0.00 | 72 | |
| 20260504012356 | 60 | 250 | 3.0 | 10.0 | 0.00 | 0.00 | 0.00 | 71 | |
| 20260504012155 | 60 | 260 | 1.0 | 10.0 | 0.00 | 0.00 | 0.00 | 70 | |
| 20260504011951 | 60 | 279 | 4.0 | 10.0 | 0.00 | 0.00 | 0.00 | 70 | |
| 20260504011751 | 60 | 222 | 2.0 | 12.0 | 0.00 | 0.00 | 0.00 | 69 | |
| 20260504011549 | 60 | 268 | 3.0 | 12.0 | 0.00 | 0.00 | 0.00 | 69 | |
| 20260504011347 | 60 | 248 | 9.0 | 12.0 | 0.00 | 0.00 | 0.00 | 69 | |
| 20260504011145 | 60 | 251 | 6.0 | 10.0 | 0.00 | 0.00 | 0.00 | 69 | |
| 20260504010941 | 60 | 250 | 8.0 | 10.0 | 0.00 | 0.00 | 0.00 | 68 | |
| 20260504010741 | 61 | 296 | 4.0 | 12.0 | 0.00 | 0.00 | 0.00 | 68 | |
| 20260504010539 | 61 | 293 | 9.0 | 12.0 | 0.00 | 0.00 | 0.00 | 67 | |
| 20260504010337 | 61 | 26 | 1.0 | 12.0 | 0.00 | 0.00 | 0.00 | 67 | |
| 20260504010135 | 61 | 246 | 1.0 | 10.0 | 0.00 | 0.00 | 0.00 | 67 | |
| 20260504005933 | 61 | 246 | 11.0 | 10.0 | 0.00 | 0.00 | 0.00 | 67 | |
| 20260504005732 | 62 | 275 | 5.0 | 10.0 | 0.00 | 0.00 | 0.00 | 67 | |
| 20260504005530 | 62 | 284 | 3.0 | 10.0 | 0.00 | 0.00 | 0.00 | 67 | |
| 20260504005328 | 61 | 267 | 5.0 | 10.0 | 0.00 | 0.00 | 0.00 | 67 | |
| 20260504005126 | 62 | 254 | 7.0 | 10.0 | 0.00 | 0.00 | 0.00 | 67 | |
| 20260504004924 | 62 | 282 | 3.0 | 10.0 | 0.00 | 0.00 | 0.00 | 67 | |
| 20260504004722 | 62 | 243 | 4.0 | 10.0 | 0.00 | 0.00 | 0.00 | 67 | |
| 20260504004521 | 62 | 275 | 2.0 | 10.0 | 0.00 | 0.00 | 0.00 | 67 | |
| 20260504004318 | 62 | 282 | 2.0 | 10.0 | 0.00 | 0.00 | 0.00 | 67 | |
| 20260504004116 | 62 | 257 | 6.0 | 10.0 | 0.00 | 0.00 | 0.00 | 66 | |
| 20260504003915 | 62 | 261 | 5.0 | 10.0 | 0.00 | 0.00 | 0.00 | 66 | |
| 20260504003712 | 63 | 295 | 2.0 | 9.0 | 0.00 | 0.00 | 0.00 | 67 | |
| 20260504003509 | 63 | 267 | 6.0 | 9.0 | 0.00 | 0.00 | 0.00 | 66 | |
| 20260504003309 | 63 | 243 | 1.0 | 8.0 | 0.00 | 0.00 | 0.00 | 66 | |
| 20260504003107 | 63 | 274 | 4.0 | 8.0 | 0.00 | 0.00 | 0.00 | 66 | |
| 20260504002905 | 63 | 274 | 4.0 | 8.0 | 0.00 | 0.00 | 0.00 | 65 | |
| 20260504002703 | 63 | 278 | 5.0 | 8.0 | 0.00 | 0.00 | 0.00 | 66 | |
| 20260504002501 | 63 | 264 | 2.0 | 8.0 | 0.00 | 0.00 | 0.00 | 66 | |
| 20260504002259 | 63 | 240 | 3.0 | 7.0 | 0.00 | 0.00 | 0.00 | 65 | |
| 20260504002057 | 63 | 272 | 1.0 | 7.0 | 0.00 | 0.00 | 0.00 | 65 | |
| 20260504001653 | 64 | 289 | 5.0 | 8.0 | 0.00 | 0.00 | 0.00 | 65 | |
| 20260504001452 | 64 | 282 | 1.0 | 8.0 | 0.00 | 0.00 | 0.00 | 65 | |
| 20260504001248 | 64 | 274 | 4.0 | 10.0 | 0.00 | 0.00 | 0.00 | 65 | |
| 20260504001048 | 64 | 274 | 5.0 | 10.0 | 0.00 | 0.00 | 0.00 | 64 | |
| 20260504000846 | 63 | 271 | 5.0 | 10.0 | 0.00 | 0.00 | 0.00 | 64 | |
| 20260504000644 | 64 | 265 | 3.0 | 8.0 | 0.00 | 0.00 | 0.00 | 64 | |
| 20260504000442 | 64 | 270 | 4.0 | 8.0 | 0.00 | 0.00 | 0.00 | 64 | |
| 20260504000241 | 63 | 288 | 4.0 | 8.0 | 0.00 | 0.00 | 0.00 | 64 | |
| 20260503235836 | 63 | 264 | 5.0 | 8.0 | 0.00 | 0.00 | 0.00 | 64 | |
| 20260503235634 | 63 | 264 | 6.0 | 8.0 | 0.00 | 0.00 | 0.00 | 65 | |
| 20260503235431 | 63 | 277 | 5.0 | 8.0 | 0.00 | 0.00 | 0.00 | 64 | |
| 20260503235231 | 63 | 258 | 5.0 | 9.0 | 0.00 | 0.00 | 0.00 | 66 | |
| 20260503235029 | 63 | 286 | 5.0 | 9.0 | 0.00 | 0.00 | 0.00 | 65 | |
| 20260503234827 | 63 | 274 | 4.0 | 9.0 | 0.00 | 0.00 | 0.00 | 66 | |
| 20260503234625 | 63 | 286 | 4.0 | 9.0 | 0.00 | 0.00 | 0.00 | 65 | |
| 20260503234423 | 63 | 272 | 8.0 | 9.0 | 0.00 | 0.00 | 0.00 | 64 | |
| 20260503234221 | 63 | 254 | 9.0 | 7.0 | 0.00 | 0.00 | 0.00 | 65 | |
| 20260503234019 | 63 | 244 | 1.0 | 7.0 | 0.00 | 0.00 | 0.00 | 65 | |
| 20260503233818 | 63 | 270 | 4.0 | 11.0 | 0.00 | 0.00 | 0.00 | 66 | |
| 20260503233616 | 63 | 253 | 2.0 | 11.0 | 0.00 | 0.00 | 0.00 | 66 | |
| 20260503233414 | 63 | 202 | 0.0 | 11.0 | 0.00 | 0.00 | 0.00 | 65 | |
| 20260503233212 | 63 | 264 | 11.0 | 8.0 | 0.00 | 0.00 | 0.00 | 65 | |
| 20260503233008 | 63 | 262 | 8.0 | 8.0 | 0.00 | 0.00 | 0.00 | 65 | |
| 20260503232808 | 63 | 262 | 4.0 | 9.0 | 0.00 | 0.00 | 0.00 | 64 | |
| 20260503232606 | 63 | 271 | 6.0 | 9.0 | 0.00 | 0.00 | 0.00 | 65 | |
| 20260503232202 | 63 | 262 | 7.0 | 9.0 | 0.00 | 0.00 | 0.00 | 65 | |
| 20260503232000 | 63 | 292 | 4.0 | 9.0 | 0.00 | 0.00 | 0.00 | 66 | |
| 20260503231758 | 63 | 274 | 6.0 | 10.0 | 0.00 | 0.00 | 0.00 | 66 | |
| 20260503231555 | 63 | 251 | 6.0 | 10.0 | 0.00 | 0.00 | 0.00 | 65 | |
| 20260503231356 | 63 | 268 | 1.0 | 10.0 | 0.00 | 0.00 | 0.00 | 66 | |
| 20260503231153 | 63 | 282 | 3.0 | 10.0 | 0.00 | 0.00 | 0.00 | 65 | |
| 20260503230951 | 63 | 271 | 6.0 | 10.0 | 0.00 | 0.00 | 0.00 | 65 | |
| 20260503230547 | 63 | 284 | 6.0 | 9.0 | 0.00 | 0.00 | 0.00 | 64 | |
| 20260503230345 | 63 | 298 | 5.0 | 9.0 | 0.00 | 0.00 | 0.00 | 65 | |
| 20260503230143 | 63 | 270 | 2.0 | 11.0 | 0.00 | 0.00 | 0.00 | 63 | |
| 20260503225941 | 64 | 226 | 2.0 | 11.0 | 0.00 | 0.00 | 0.00 | 64 | |
| 20260503225739 | 63 | 260 | 9.0 | 11.0 | 0.00 | 0.00 | 0.00 | 63 | |
| 20260503225537 | 63 | 274 | 6.0 | 11.0 | 0.00 | 0.00 | 0.00 | 63 | |
| 20260503225334 | 64 | 270 | 9.0 | 11.0 | 0.00 | 0.00 | 0.00 | 63 | |
| 20260503225134 | 64 | 265 | 9.0 | 9.0 | 0.00 | 0.00 | 0.00 | 62 | |
| 20260503224930 | 64 | 248 | 1.0 | 9.0 | 0.00 | 0.00 | 0.00 | 64 | |
| 20260503224732 | 64 | 292 | 3.0 | 11.0 | 0.00 | 0.00 | 0.00 | 64 | |
| 20260503224526 | 64 | 203 | 1.0 | 11.0 | 0.00 | 0.00 | 0.00 | 63 | |
| 20260503224123 | 64 | 243 | 8.0 | 5.0 | 0.00 | 0.00 | 0.00 | 63 | |
| 20260503223719 | 64 | 293 | 3.0 | 11.0 | 0.00 | 0.00 | 0.00 | 64 | |
| 20260503223517 | 64 | 291 | 2.0 | 11.0 | 0.00 | 0.00 | 0.00 | 63 | |
| 20260503223315 | 63 | 282 | 5.0 | 10.0 | 0.00 | 0.00 | 0.00 | 64 | |
| 20260503223115 | 63 | 289 | 5.0 | 10.0 | 0.00 | 0.00 | 0.00 | 64 | |
| 20260503222911 | 63 | 270 | 8.0 | 10.0 | 0.00 | 0.00 | 0.00 | 64 | |
| 20260503222709 | 63 | 272 | 8.0 | 11.0 | 0.00 | 0.00 | 0.00 | 64 | |
| 20260503222507 | 63 | 243 | 1.0 | 11.0 | 0.00 | 0.00 | 0.00 | 65 | |
| 20260503222305 | 63 | 298 | 5.0 | 8.0 | 0.00 | 0.00 | 0.00 | 64 | |
| 20260503221902 | 63 | 278 | 4.0 | 8.0 | 0.00 | 0.00 | 0.00 | 65 | |
| 20260503221700 | 63 | 281 | 8.0 | 8.0 | 0.00 | 0.00 | 0.00 | 65 | |
| 20260503221457 | 63 | 281 | 7.0 | 8.0 | 0.00 | 0.00 | 0.00 | 65 | |
| 20260503221256 | 63 | 257 | 4.0 | 8.0 | 0.00 | 0.00 | 0.00 | 66 | |
| 20260503221056 | 62 | 302 | 1.0 | 8.0 | 0.00 | 0.00 | 0.00 | 67 | |
| 20260503220854 | 62 | 240 | 0.0 | 8.0 | 0.00 | 0.00 | 0.00 | 66 | |
| 20260503220650 | 62 | 258 | 6.0 | 8.0 | 0.00 | 0.00 | 0.00 | 67 | |
| 20260503220248 | 62 | 216 | 0.0 | 10.0 | 0.00 | 0.00 | 0.00 | 67 | |
| 20260503220046 | 62 | 288 | 4.0 | 10.0 | 0.00 | 0.00 | 0.00 | 66 | |
| 20260503215844 | 62 | 292 | 6.0 | 10.0 | 0.00 | 0.00 | 0.00 | 66 | |
| 20260503215642 | 62 | 270 | 6.0 | 7.0 | 0.00 | 0.00 | 0.00 | 66 | |
| 20260503215440 | 62 | 277 | 6.0 | 7.0 | 0.00 | 0.00 | 0.00 | 68 | |
| 20260503215237 | 62 | 284 | 0.0 | 8.0 | 0.00 | 0.00 | 0.00 | 68 | |
| 20260503215037 | 62 | 251 | 1.0 | 8.0 | 0.00 | 0.00 | 0.00 | 68 | |
| 20260503214834 | 61 | 272 | 7.0 | 8.0 | 0.00 | 0.00 | 0.00 | 68 | |
| 20260503214633 | 61 | 262 | 5.0 | 9.0 | 0.00 | 0.00 | 0.00 | 69 | |
| 20260503214431 | 61 | 278 | 5.0 | 9.0 | 0.00 | 0.00 | 0.00 | 69 | |
| 20260503214229 | 61 | 279 | 4.0 | 9.0 | 0.00 | 0.00 | 0.00 | 70 | |
| 20260503214027 | 61 | 267 | 7.0 | 9.0 | 0.00 | 0.00 | 0.00 | 69 | |
| 20260503213827 | 61 | 268 | 1.0 | 9.0 | 0.00 | 0.00 | 0.00 | 71 | |
| 20260503213623 | 61 | 296 | 5.0 | 11.0 | 0.00 | 0.00 | 0.00 | 70 | |
| 20260503213421 | 61 | 267 | 4.0 | 11.0 | 0.00 | 0.00 | 0.00 | 71 | |
| 20260503213220 | 60 | 261 | 9.0 | 11.0 | 0.00 | 0.00 | 0.00 | 70 | |
| 20260503213018 | 61 | 262 | 7.0 | 11.0 | 0.00 | 0.00 | 0.00 | 71 | |
| 20260503212816 | 61 | 247 | 5.0 | 8.0 | 0.00 | 0.00 | 0.00 | 71 | |
| 20260503212612 | 61 | 265 | 9.0 | 8.0 | 0.00 | 0.00 | 0.00 | 70 | |
| 20260503212412 | 61 | 279 | 3.0 | 8.0 | 0.00 | 0.00 | 0.00 | 70 | |
| 20260503212210 | 61 | 270 | 5.0 | 7.0 | 0.00 | 0.00 | 0.00 | 71 | |
| 20260503212006 | 61 | 272 | 7.0 | 7.0 | 0.00 | 0.00 | 0.00 | 71 | |
| 20260503211806 | 61 | 281 | 3.0 | 7.0 | 0.00 | 0.00 | 0.00 | 71 | |
| 20260503211604 | 61 | 277 | 4.0 | 7.0 | 0.00 | 0.00 | 0.00 | 72 | |
| 20260503211402 | 61 | 274 | 3.0 | 7.0 | 0.00 | 0.00 | 0.00 | 71 | |
| 20260503211200 | 61 | 240 | 1.0 | 8.0 | 0.00 | 0.00 | 0.00 | 72 | |
| 20260503210757 | 61 | 275 | 2.0 | 7.0 | 0.00 | 0.00 | 0.00 | 72 | |
| 20260503210553 | 61 | 271 | 7.0 | 7.0 | 0.00 | 0.00 | 0.00 | 72 | |
| 20260503210353 | 61 | 268 | 5.0 | 7.0 | 0.00 | 0.00 | 0.00 | 73 | |
| 20260503210151 | 61 | 240 | 0.0 | 8.0 | 0.00 | 0.00 | 0.00 | 73 | |
| 20260503205949 | 61 | 282 | 5.0 | 8.0 | 0.00 | 0.00 | 0.00 | 73 | |
| 20260503205747 | 60 | 254 | 4.0 | 10.0 | 0.00 | 0.00 | 0.00 | 73 | |
| 20260503205546 | 61 | 293 | 7.0 | 10.0 | 0.00 | 0.00 | 0.00 | 74 | |
| 20260503205141 | 60 | 275 | 1.0 | 7.0 | 0.00 | 0.00 | 0.00 | 74 | |
| 20260503204939 | 60 | 257 | 5.0 | 7.0 | 0.00 | 0.00 | 0.00 | 73 | |
| 20260503204536 | 60 | 265 | 5.0 | 10.0 | 0.00 | 0.00 | 0.00 | 75 | |
| 20260503204334 | 60 | 268 | 5.0 | 10.0 | 0.00 | 0.00 | 0.00 | 74 | |
| 20260503204132 | 60 | 265 | 9.0 | 10.0 | 0.00 | 0.00 | 0.00 | 74 | |
| 20260503203930 | 60 | 255 | 7.0 | 10.0 | 0.00 | 0.00 | 0.00 | 74 | |
| 20260503203728 | 60 | 244 | 5.0 | 10.0 | 0.00 | 0.00 | 0.00 | 75 | |
| 20260503203526 | 60 | 260 | 4.0 | 10.0 | 0.00 | 0.00 | 0.00 | 75 | |
| 20260503202920 | 59 | 261 | 7.0 | 13.0 | 0.00 | 0.00 | 0.00 | 75 | |
| 20260503202719 | 60 | 272 | 6.0 | 13.0 | 0.00 | 0.00 | 0.00 | 75 | |
| 20260503202517 | 59 | 261 | 7.0 | 13.0 | 0.00 | 0.00 | 0.00 | 75 | |
| 20260503202315 | 60 | 260 | 11.0 | 12.0 | 0.00 | 0.00 | 0.00 | 75 | |
| 20260503202113 | 60 | 271 | 4.0 | 12.0 | 0.00 | 0.00 | 0.00 | 75 | |
| 20260503201507 | 59 | 258 | 8.0 | 13.0 | 0.00 | 0.00 | 0.00 | 75 | |
| 20260503201305 | 60 | 251 | 9.0 | 11.0 | 0.00 | 0.00 | 0.00 | 75 | |
| 20260503201104 | 59 | 254 | 8.0 | 11.0 | 0.00 | 0.00 | 0.00 | 75 | |
| 20260503200902 | 60 | 255 | 7.0 | 11.0 | 0.00 | 0.00 | 0.00 | 75 | |
| 20260503200700 | 60 | 257 | 4.0 | 11.0 | 0.00 | 0.00 | 0.00 | 75 | |
| 20260503200458 | 60 | 277 | 7.0 | 11.0 | 0.00 | 0.00 | 0.00 | 75 | |
| 20260503200256 | 60 | 300 | 6.0 | 10.0 | 0.00 | 0.00 | 0.00 | 75 | |
| 20260503200054 | 60 | 257 | 7.0 | 10.0 | 0.00 | 0.00 | 0.00 | 75 | |
| 20260503195852 | 61 | 281 | 7.0 | 10.0 | 0.00 | 0.00 | 0.00 | 74 | |
| 20260503195650 | 61 | 265 | 7.0 | 9.0 | 0.00 | 0.00 | 0.00 | 74 | |
| 20260503195448 | 61 | 255 | 3.0 | 9.0 | 0.00 | 0.00 | 0.00 | 73 | |
| 20260503195044 | 61 | 264 | 5.0 | 5.0 | 0.00 | 0.00 | 0.00 | 72 | |
| 20260503194843 | 61 | 274 | 6.0 | 5.0 | 0.00 | 0.00 | 0.00 | 71 | |
| 20260503194641 | 62 | 286 | 0.0 | 0.0 | 0.00 | 0.00 | 0.00 | 71 | |
| 20260503194439 | 62 | 267 | 1.0 | 0.0 | 0.00 | 0.00 | 0.00 | 72 | |
| 20260503194236 | 62 | 306 | 0.0 | 3.0 | 0.00 | 0.00 | 0.00 | 73 | |
| 20260503194035 | 61 | 306 | 0.0 | 3.0 | 0.00 | 0.00 | 0.00 | 73 | |
| 20260503193833 | 61 | 306 | 0.0 | 3.0 | 0.00 | 0.00 | 0.00 | 73 | |
| 20260503193631 | 61 | 306 | 0.0 | 7.0 | 0.00 | 0.00 | 0.00 | 73 | |
| 20260503193429 | 61 | 319 | 0.0 | 7.0 | 0.00 | 0.00 | 0.00 | 72 | |
| 20260503193227 | 61 | 291 | 5.0 | 9.0 | 0.00 | 0.00 | 0.00 | 72 | |
| 20260503193026 | 61 | 289 | 4.0 | 9.0 | 0.00 | 0.00 | 0.00 | 73 | |
| 20260503192824 | 61 | 299 | 4.0 | 9.0 | 0.00 | 0.00 | 0.00 | 72 | |
| 20260503192622 | 61 | 296 | 4.0 | 0.0 | 0.00 | 0.00 | 0.00 | 72 | |
| 20260503192420 | 61 | 278 | 0.0 | 0.0 | 0.00 | 0.00 | 0.00 | 74 | |
| 20260503192218 | 61 | 278 | 0.0 | 8.0 | 0.00 | 0.00 | 0.00 | 74 | |
| 20260503192016 | 61 | 278 | 0.0 | 8.0 | 0.00 | 0.00 | 0.00 | 74 | |
| 20260503191814 | 61 | 278 | 0.0 | 7.0 | 0.00 | 0.00 | 0.00 | 74 | |
| 20260503191610 | 61 | 298 | 4.0 | 7.0 | 0.00 | 0.00 | 0.00 | 74 | |
| 20260503191410 | 61 | 270 | 7.0 | 7.0 | 0.00 | 0.00 | 0.00 | 74 | |
| 20260503191208 | 61 | 274 | 6.0 | 7.0 | 0.00 | 0.00 | 0.00 | 73 | |
| 20260503191005 | 61 | 286 | 5.0 | 7.0 | 0.00 | 0.00 | 0.00 | 75 | |
| 20260503190805 | 60 | 302 | 2.0 | 6.0 | 0.00 | 0.00 | 0.00 | 75 | |
| 20260503190603 | 60 | 271 | 6.0 | 6.0 | 0.00 | 0.00 | 0.00 | 76 | |
| 20260503190401 | 60 | 292 | 6.0 | 6.0 | 0.00 | 0.00 | 0.00 | 75 | |
| 20260503190159 | 60 | 320 | 1.0 | 7.0 | 0.00 | 0.00 | 0.00 | 76 | |
| 20260503185957 | 60 | 288 | 5.0 | 7.0 | 0.00 | 0.00 | 0.00 | 76 | |
| 20260503185756 | 60 | 291 | 5.0 | 6.0 | 0.00 | 0.00 | 0.00 | 76 | |
| 20260503185553 | 60 | 5 | 1.0 | 6.0 | 0.00 | 0.00 | 0.00 | 77 | |
| 20260503185351 | 60 | 300 | 4.0 | 6.0 | 0.00 | 0.00 | 0.00 | 77 | |
| 20260503185149 | 60 | 354 | 0.0 | 3.0 | 0.00 | 0.00 | 0.00 | 80 | |
| 20260503184947 | 60 | 354 | 0.0 | 3.0 | 0.00 | 0.00 | 0.00 | 80 | |
| 20260503184745 | 60 | 354 | 0.0 | 5.0 | 0.00 | 0.00 | 0.00 | 80 | |
| 20260503184544 | 60 | 2 | 0.0 | 5.0 | 0.00 | 0.00 | 0.00 | 79 | |
| 20260503184341 | 60 | 305 | 3.0 | 5.0 | 0.00 | 0.00 | 0.00 | 78 | |
| 20260503184139 | 60 | 299 | 2.0 | 2.0 | 0.00 | 0.00 | 0.00 | 79 | |
| 20260503183938 | 60 | 344 | 0.0 | 2.0 | 0.00 | 0.00 | 0.00 | 80 | |
| 20260503183735 | 59 | 7 | 1.0 | 4.0 | 0.00 | 0.00 | 0.00 | 81 | |
| 20260503183534 | 59 | 289 | 0.0 | 4.0 | 0.00 | 0.00 | 0.00 | 81 | |
| 20260503183130 | 59 | 307 | 3.0 | 0.0 | 0.00 | 0.00 | 0.00 | 79 | |
| 20260503182928 | 59 | 292 | 0.0 | 0.0 | 0.00 | 0.00 | 0.00 | 81 | |
| 20260503182726 | 59 | 258 | 0.0 | 1.0 | 0.00 | 0.00 | 0.00 | 82 | |
| 20260503182524 | 60 | 258 | 0.0 | 1.0 | 0.00 | 0.00 | 0.00 | 81 | |
| 20260503182323 | 59 | 258 | 0.0 | 5.0 | 0.00 | 0.00 | 0.00 | 82 | |
| 20260503182121 | 59 | 258 | 0.0 | 5.0 | 0.00 | 0.00 | 0.00 | 81 | |
| 20260503181917 | 59 | 258 | 0.0 | 5.0 | 0.00 | 0.00 | 0.00 | 80 | |
| 20260503181717 | 59 | 286 | 3.0 | 0.0 | 0.00 | 0.00 | 0.00 | 80 | |
| 20260503181515 | 59 | 265 | 2.0 | 0.0 | 0.00 | 0.00 | 0.00 | 82 | |
| 20260503181313 | 59 | 310 | 0.0 | 3.0 | 0.00 | 0.00 | 0.00 | 82 | |
| 20260503181111 | 59 | 310 | 0.0 | 3.0 | 0.00 | 0.00 | 0.00 | 82 | |
| 20260503180909 | 59 | 310 | 0.0 | 3.0 | 0.00 | 0.00 | 0.00 | 82 | |
| 20260503180707 | 59 | 310 | 0.0 | 0.0 | 0.00 | 0.00 | 0.00 | 82 | |
| 20260503180505 | 59 | 298 | 3.0 | 0.0 | 0.00 | 0.00 | 0.00 | 81 | |
| 20260503180302 | 59 | 182 | 0.0 | 2.0 | 0.00 | 0.00 | 0.00 | 81 | |
| 20260503175900 | 59 | 182 | 0.0 | 2.0 | 0.00 | 0.00 | 0.00 | 83 | |
| 20260503175658 | 59 | 208 | 1.0 | 3.0 | 0.00 | 0.00 | 0.00 | 81 | |
| 20260503175456 | 59 | 216 | 0.0 | 3.0 | 0.00 | 0.00 | 0.00 | 83 | |
| 20260503175254 | 59 | 223 | 2.0 | 3.0 | 0.00 | 0.00 | 0.00 | 83 | |
| 20260503175052 | 59 | 113 | 2.0 | 3.0 | 0.00 | 0.00 | 0.00 | 85 | |
| 20260503174850 | 59 | 64 | 0.0 | 3.0 | 0.00 | 0.00 | 0.00 | 85 | |
| 20260503174648 | 58 | 192 | 1.0 | 4.0 | 0.00 | 0.00 | 0.00 | 84 | |
| 20260503174447 | 58 | 106 | 0.0 | 4.0 | 0.00 | 0.00 | 0.00 | 86 | |
| 20260503174042 | 58 | 45 | 0.0 | 2.0 | 0.00 | 0.00 | 0.00 | 86 | |
| 20260503173841 | 58 | 123 | 3.0 | 2.0 | 0.00 | 0.00 | 0.00 | 87 | |
| 20260503173639 | 58 | 135 | 0.0 | 2.0 | 0.00 | 0.00 | 0.00 | 88 | |
| 20260503173435 | 58 | 135 | 0.0 | 2.0 | 0.00 | 0.00 | 0.00 | 88 | |
| 20260503173235 | 58 | 91 | 0.0 | 2.0 | 0.00 | 0.00 | 0.00 | 90 | |
| 20260503173033 | 58 | 122 | 1.0 | 2.0 | 0.00 | 0.00 | 0.00 | 90 | |
| 20260503172831 | 57 | 90 | 1.0 | 2.0 | 0.00 | 0.00 | 0.00 | 90 | |
| 20260503172630 | 57 | 84 | 0.0 | 2.0 | 0.00 | 0.00 | 0.00 | 92 | |
| 20260503172428 | 57 | 84 | 0.0 | 2.0 | 0.00 | 0.00 | 0.00 | 92 | |
| 20260503172024 | 57 | 171 | 0.0 | 2.0 | 0.00 | 0.00 | 0.00 | 93 | |
| 20260503171822 | 57 | 187 | 1.0 | 3.0 | 0.00 | 0.00 | 0.00 | 93 | |
| 20260503171620 | 57 | 282 | 0.0 | 3.0 | 0.00 | 0.00 | 0.00 | 93 | |
| 20260503171418 | 56 | 282 | 0.0 | 3.0 | 0.00 | 0.00 | 0.00 | 93 | |
| 20260503171216 | 57 | 285 | 0.0 | 2.0 | 0.00 | 0.00 | 0.00 | 93 | |
| 20260503171014 | 57 | 285 | 2.0 | 2.0 | 0.00 | 0.00 | 0.00 | 93 | |
| 20260503170812 | 57 | 286 | 0.0 | 4.0 | 0.00 | 0.00 | 0.00 | 93 | |
| 20260503170610 | 57 | 289 | 0.0 | 4.0 | 0.00 | 0.00 | 0.00 | 94 | |
| 20260503170408 | 57 | 289 | 0.0 | 4.0 | 0.00 | 0.00 | 0.00 | 94 | |
| 20260503170206 | 57 | 289 | 0.0 | 5.0 | 0.00 | 0.00 | 0.00 | 94 | |
| 20260503160109 | 56 | 264 | 4.0 | 7.0 | 0.00 | 0.00 | 0.00 | 94 | |
| 20260503150818 | 57 | 278 | 0.0 | 5.0 | 0.00 | 0.00 | 0.00 | 95 | |
| 20260503150618 | 57 | 282 | 1.0 | 5.0 | 0.00 | 0.00 | 0.00 | 95 | |
| 20260503150416 | 57 | 282 | 2.0 | 5.0 | 0.00 | 0.00 | 0.00 | 95 | |
| 20260503150214 | 56 | 286 | 2.0 | 6.0 | 0.00 | 0.00 | 0.00 | 95 | |
| 20260503131231 | 56 | 300 | 0.0 | 0.0 | 0.00 | 0.00 | 0.00 | 96 | |
| 20260503131029 | 56 | 300 | 0.0 | 0.0 | 0.00 | 0.00 | 0.00 | 96 | |
| 20260503130828 | 56 | 300 | 0.0 | 0.0 | 0.00 | 0.00 | 0.00 | 96 | |
| 20260503130626 | 56 | 300 | 0.0 | 0.0 | 0.00 | 0.00 | 0.00 | 96 | |
| 20260503130424 | 56 | 300 | 0.0 | 0.0 | 0.00 | 0.00 | 0.00 | 96 | |
| 20260503130222 | 56 | 300 | 0.0 | 0.0 | 0.00 | 0.00 | 0.00 | 96 | |
| 20260503120124 | 56 | 288 | 1.0 | 4.0 | 0.00 | 0.00 | 0.00 | 96 | |
| 20260503110635 | 56 | 260 | 0.0 | 0.0 | 0.00 | 0.00 | 0.00 | 97 | |
| 20260503110431 | 56 | 260 | 0.0 | 0.0 | 0.00 | 0.00 | 0.00 | 96 | |
| 20260503100217 | 56 | 260 | 0.0 | 0.0 | 0.00 | 0.00 | 0.00 | 97 | |
| 20260503100133 | 56 | 260 | 0.0 | 0.0 | 0.00 | 0.00 | 0.00 | 97 | |
| 20260503090439 | 56 | 265 | 5.0 | 7.0 | 0.00 | 0.00 | 0.00 | 96 | |
| 20260503090237 | 56 | 277 | 5.0 | 6.0 | 0.00 | 0.00 | 0.00 | 96 | |
| 20260503081552 | 58 | 267 | 5.0 | 5.0 | 0.00 | 0.00 | 0.00 | 95 | |
| 20260503081352 | 58 | 281 | 2.0 | 5.0 | 0.00 | 0.00 | 0.00 | 95 | |
| 20260503080746 | 58 | 296 | 2.0 | 6.0 | 0.00 | 0.00 | 0.00 | 95 | |
| 20260503080542 | 58 | 281 | 1.0 | 6.0 | 0.00 | 0.00 | 0.00 | 95 | |
| 20260503080342 | 58 | 295 | 3.0 | 6.0 | 0.00 | 0.00 | 0.00 | 95 | |
| 20260503080140 | 57 | 284 | 3.0 | 7.0 | 0.00 | 0.00 | 0.00 | 95 | |
| 20260503072708 | 58 | 277 | 7.0 | 6.0 | 0.00 | 0.00 | 0.00 | 93 | |
| 20260503072506 | 58 | 279 | 4.0 | 6.0 | 0.00 | 0.00 | 0.00 | 93 | |
| 20260503072305 | 58 | 277 | 3.0 | 5.0 | 0.00 | 0.00 | 0.00 | 93 | |
| 20260503072102 | 58 | 281 | 6.0 | 5.0 | 0.00 | 0.00 | 0.00 | 93 | |
| 20260503071657 | 58 | 264 | 4.0 | 7.0 | 0.00 | 0.00 | 0.00 | 93 | |
| 20260503071256 | 58 | 279 | 4.0 | 6.0 | 0.00 | 0.00 | 0.00 | 93 | |
| 20260503071052 | 58 | 271 | 6.0 | 6.0 | 0.00 | 0.00 | 0.00 | 93 | |
| 20260503070851 | 58 | 299 | 4.0 | 6.0 | 0.00 | 0.00 | 0.00 | 93 | |
| 20260503070649 | 58 | 275 | 3.0 | 7.0 | 0.00 | 0.00 | 0.00 | 93 | |
| 20260503070245 | 58 | 293 | 5.0 | 6.0 | 0.00 | 0.00 | 0.00 | 93 |